Flag for Germany Weather past 2 weeks in Rottenburg am Neckar, Baden-Württemberg, Germany

Now
41 °F

Light rain. Overcast.


Feels Like: 38 °F
Forecast: 32 / 45 °F
Wind: 5 mph from Southwest

Location: Stuttgart-Echterdingen

Current Time: Dec 21, 2014 at 2:10:34 AM

Latest Report: Dec 21, 2014 at 1:00 AM


Visibility: 34 mi

Pressure: 30.44 "Hg

Humidity: 78%

Dew point: 34 °F

Location of Rottenburg am NeckarLocation

Historic Weather in Rottenburg am Neckar — Graph

°F

Rottenburg am Neckar temperature yesterday

Maximum temperature yesterday: 47 °F (at 12:00 AM)
Minimum temperature yesterday: 36 °F (at 8:00 AM)
Average temperature yesterday: 42 °F

Past Weeks' High & Low Weather Summary

 TemperatureHumidityPressure
High54 °F (Dec 18, 9:00 PM)98% (Dec 16, 6:00 AM)30.48 "Hg (Dec 16, 6:00 AM)
Low29 °F (Dec 9, 3:00 AM)55% (Dec 12, 1:00 PM)29.76 "Hg (Dec 12, 7:00 PM)
Average42 °F84%30.10 "Hg
* Reported Dec 6 1:00 AM — Dec 21 1:00 AM, Rottenburg am Neckar, Weather by CustomWeather, © 2014

Note: Actual official high and low records may vary slightly from our data, if they occured in-between our weather recording intervals... More about our weather records

Advertising

Rottenburg am Neckar weather history for previous 24 hours

 ConditionsComfort  
Time TempWeatherWind HumidityBarometerVisibility
1:00 AM
Dec 21
41 °FLight rain. Overcast.5 mph78%30.44 "Hg34 mi
12:00 AM41 °FOvercast.5 mph78%30.43 "Hg28 mi
11:00 PM
Dec 20
40 °FOvercast.5 mph83%30.41 "Hg28 mi
9:00 PM41 °FSprinkles. Overcast.6 mph80%30.38 "Hg19 mi
8:00 PM41 °FOvercast.7 mph80%30.34 "Hg25 mi
7:00 PM42 °FLight rain. Overcast.6 mph71%30.30 "Hg25 mi
6:00 PM42 °FOvercast.9 mph68%30.27 "Hg31 mi
5:00 PM42 °FOvercast.8 mph66%30.26 "Hg31 mi
4:00 PM43 °FOvercast.7 mph66%30.25 "Hg37 mi
3:00 PM43 °FOvercast.7 mph63%30.26 "Hg37 mi
2:00 PM43 °FOvercast.5 mph64%30.28 "Hg37 mi
1:00 PM43 °FOvercast.6 mph69%30.29 "Hg37 mi
12:00 PM42 °FOvercast.5 mph66%30.32 "Hg37 mi
11:00 AM40 °FOvercast.3 mph73%30.35 "Hg34 mi
9:00 AM38 °FScattered clouds.3 mph78%30.35 "Hg34 mi
8:00 AM36 °FPassing clouds.1 mph82%30.35 "Hg28 mi
7:00 AM39 °FPassing clouds.6 mph77%30.33 "Hg25 mi
6:00 AM38 °FPassing clouds.2 mph88%30.33 "Hg25 mi
5:00 AM40 °FOvercast.2 mph86%30.31 "Hg25 mi
3:00 AM44 °FPassing clouds.2 mph78%30.28 "Hg25 mi
2:00 AM44 °FPassing clouds.5 mph78%30.25 "Hg25 mi
Weather by CustomWeather, © 2014

See weather overviewHow to use our weather pages